FWS9458 Weather Reports


time (UTC)temp
F
wind
direction
speed
knots
gust
knots
rain 1hr
in
rain 24hr
in
rain mn
in
humidity
%
barometer
mb
20260507131204 65 214 2.6 9.6 0.00 0.00 0.00 49 1010.3
20260507130904 64 221 2.6 9.6 0.00 0.00 0.00 50 1010.7
20260507130604 65 229 3.5 9.6 0.00 0.00 0.00 48 1010.7
20260507130304 64 226 3.5 12.2 0.00 0.00 0.00 49 1010.7
20260507130005 65 217 5.2 12.2 0.00 0.00 0.00 49 1010.6
20260507125704 65 220 4.3 12.2 0.00 0.00 0.00 48 1010.7
20260507125404 64 217 4.3 12.2 0.00 0.00 0.00 50 1010.8
20260507125104 64 224 5.2 12.2 0.00 0.00 0.00 48 1010.8
20260507124804 65 230 5.2 12.2 0.00 0.00 0.00 46 1010.8
20260507124505 65 235 7.0 13.0 0.00 0.00 0.00 44 1010.8
20260507124204 66 232 7.8 13.0 0.00 0.00 0.00 45 1010.6
20260507123904 67 237 7.0 13.0 0.00 0.00 0.00 45 1010.7
20260507123604 67 225 7.8 23.5 0.00 0.00 0.00 45 1010.7
20260507123304 66 200 8.7 23.5 0.00 0.00 0.00 45 1010.8
20260507123005 68 172 7.0 23.5 0.00 0.00 0.00 43 1010.7
20260507122705 68 167 9.6 23.5 0.00 0.00 0.00 40 1010.8
20260507122104 67 182 9.6 17.4 0.00 0.00 0.00 43 1010.9
20260507121804 70 197 5.2 13.0 0.00 0.00 0.00 44 1010.8
20260507121504 67 186 8.7 19.1 0.00 0.00 0.00 43 1010.8
20260507121205 67 191 7.8 19.1 0.00 0.00 0.00 46 1011.0
20260507120904 67 183 5.2 19.1 0.00 0.00 0.00 44 1011.0
20260507120604 68 173 11.3 19.1 0.00 0.00 0.00 45 1011.0
20260507120304 68 172 3.5 15.6 0.00 0.00 0.00 43 1010.8
20260507120004 67 175 8.7 15.6 0.00 0.00 0.00 43 1011.1
20260507115404 66 191 8.7 14.8 0.00 0.00 0.00 44 1011.1
20260507115104 66 213 7.0 14.8 0.00 0.00 0.00 46 1011.4
20260507114804 66 222 8.7 13.0 0.00 0.00 0.00 45 1011.2
20260507114505 65 218 5.2 13.0 0.00 0.00 0.00 48 1011.2
20260507114204 65 187 2.6 13.0 0.00 0.00 0.00 48 1011.2
20260507113904 64 181 3.5 13.0 0.00 0.00 0.00 47 1011.3
20260507113604 66 177 9.6 18.2 0.00 0.00 0.00 45 1011.3
20260507113304 66 177 6.1 20.0 0.00 0.00 0.00 46 1011.1
20260507112704 65 174 7.8 20.0 0.00 0.00 0.00 46 1011.3
20260507112404 67 172 7.0 18.2 0.00 0.00 0.00 49 1011.2
20260507112104 66 166 11.3 18.2 0.00 0.00 0.00 46 1011.0
20260507111804 67 134 3.5 15.6 0.00 0.00 0.00 48 1011.2
20260507111506 66 135 3.5 7.8 0.00 0.00 0.00 48 1011.0
20260507111204 64 128 3.5 15.6 0.00 0.00 0.00 51 1011.1
20260507110604 63 154 3.5 21.7 0.00 0.00 0.00 50 1011.3
20260507110304 64 155 13.0 21.7 0.00 0.00 0.00 51 1011.2
20260507110005 64 153 15.6 21.7 0.00 0.00 0.00 50 1011.4
20260507105703 64 156 7.0 18.2 0.00 0.00 0.00 49 1011.3
20260507105404 64 138 8.7 18.2 0.00 0.00 0.00 50 1011.4
20260507105104 65 151 7.0 18.2 0.00 0.00 0.00 52 1011.5
20260507104505 65 168 5.2 13.9 0.00 0.00 0.00 50 1011.3
20260507104204 64 173 4.3 13.9 0.00 0.00 0.00 52 1011.5
20260507103904 64 173 10.4 13.9 0.00 0.00 0.00 49 1011.4
20260507103604 63 171 4.3 13.9 0.00 0.00 0.00 51 1011.3
20260507103304 64 165 7.0 13.9 0.00 0.00 0.00 53 1011.3
20260507103004 64 161 6.1 13.9 0.00 0.00 0.00 51 1011.3
20260507102403 64 145 4.3 17.4 0.00 0.00 0.00 51 1011.3
20260507102104 63 140 5.2 17.4 0.00 0.00 0.00 51 1011.6
20260507101804 64 118 13.0 17.4 0.00 0.00 0.00 51 1011.3
20260507101204 63 103 5.2 9.6 0.00 0.00 0.00 56 1011.3
20260507100603 62 112 3.5 12.2 0.00 0.00 0.00 58 1011.3
20260507100304 62 119 4.3 12.2 0.00 0.00 0.00 58 1011.4
20260507095704 62 140 8.7 13.0 0.00 0.00 0.00 57 1011.2
20260507095404 62 126 3.5 13.0 0.00 0.00 0.00 57 1011.5
20260507095104 61 131 9.6 13.0 0.00 0.00 0.00 57 1011.2
20260507094505 63 125 3.5 11.3 0.00 0.00 0.00 57 1011.0
20260507094204 62 133 3.5 11.3 0.00 0.00 0.00 58 1011.1
20260507093304 62 119 4.3 7.0 0.00 0.00 0.00 58 1011.2